Hourly Data Report for September 17, 2017

All times are specified in Local Standard Time (LST). Add 1 hour to adjust for Daylight Saving Time where and when it is observed.

WINNIPEG A CS
MANITOBA

49°55'00.000" N
97°14'58.000" W
238.70 m
502S001
71849
XWG

Download Data

Hourly Data (September 2017)
Hourly Data Report for September 17, 2017
Temp Definition
°C
Dew Point Temp Definition
°C
Rel Hum Definition
%
Wind Dir Definition
10's deg

Wind Spd Definition
km/h
Visibility Definition
km
Stn Press Definition
kPa
Hmdx Definition


Wind Chill Definition


Weather Definition


TIME
00:00 7.5 7.0 97 3 5   98.38     LegendNANA
01:00 7.4 7.0 97 31 6   98.35     LegendNANA
02:00 7.3 6.9 97 29 11   98.32     LegendNANA
03:00 7.4 7.0 97 28 12   98.35     LegendNANA
04:00 7.4 6.8 96 26 18   98.37     LegendNANA
05:00 7.4 6.6 94 28 25   98.41     LegendNANA
06:00 6.9 5.9 93 27 23   98.47     LegendNANA
07:00 6.2 5.1 93 25 21   98.53     LegendNANA
08:00 7.3 5.9 91 25 26   98.55     LegendNANA
09:00 8.0 5.9 87 25 27   98.63     LegendNANA
10:00 9.7 6.2 79 26 27   98.67     LegendNANA
11:00 10.6 6.0 73 27 28   98.70     LegendNANA
12:00 11.9 6.3 68 25 26   98.71     LegendNANA
13:00 11.5 5.0 64 27 22   98.70     LegendNANA
14:00 13.3 3.4 51 26 28   98.68     LegendNANA
15:00 13.3 2.5 48 27 28   98.68     LegendNANA
16:00 14.5 2.3 44 27 24   98.68     LegendNANA
17:00 13.5 2.8 48 28 19   98.70     LegendNANA
18:00 12.6 3.6 54 26 12   98.70     LegendNANA
19:00 11.8 4.6 61 23 10   98.69     LegendNANA
20:00 11.3 5.1 65 22 10   98.71     LegendNANA
21:00 10.0 4.7 70 21 10   98.71     LegendNANA
22:00 9.7 5.1 73 21 12   98.70     LegendNANA
23:00 8.4 5.5 82 22 8   98.68     LegendNANA

Notes on Data Quality.

Legend

  • E = Estimated
  • M = Missing
  • NA = Not Available
  • ‡ = Partner data that is not subject to review by the National Climate Archives
Date modified: